ATLAS 5 CENTAUR DEB, 45471

Orbit data source: Space-Track

ATLAS 5 CENTAUR DEB, 45471 is space debris in HEO originally from a launch on Wed, 17 Oct 2018 UTC launched from the Air Force Eastern Test Range (AFETR). Debris objects in space refer to the collection of defunct objects orbiting the Earth. Examples of debris include non-operational satellites, rocket bodies, and fragments generated from explosions, collisions, or faulty payload assembly.

Loading next visibility...
Identifier
45471, 2018-079BT
Orbit
HEO
Country
Flag of USUS
Related business
Flag of USUnited Launch Alliance/Lockheed Martin (US)
Manufacturer
ULA Decatur
Mission
Spacecraft
Bus & Motor
Unknown
Mass
Unknown
Launch date (UTC)
2018-10-17 (8 years ago)
Launch vehicle
Unknown
Launch site
Air Force Eastern Test Range (AFETR)
Object type
Payload
Rocket body
Debris
Shape & HBR
Unknown shape, 1.1 m
Radar Cross Section
Medium (>0.1 m² and <1 m²)

Expand to show TLE details & history
Last TLE update: 1 week ago

TLE from 1 week ago
0 ATLAS 5 CENTAUR DEB
1 45471U 18079BT  26227.76879021 -.00000162  00000-0  00000-0 0  9995
2 45471  13.4456  39.9377 4657531 301.9027  20.8950  1.77784068 43770
Epoch: 2026-08-15T18:27Z
TLE epoch observation values (Epoch: 2026-08-15T18:27:03.474Z)
Latitude
-0.00005°
Longitude
159.0725°
Altitude
11,694.604 km
Speed
5.501 km/s
True Right ascension
02h 40m 02s
True Declination
0° 00' 00"
Sunlit
Object was in daylight at epoch
Visualization orbit readout
Latitude
Unknown
Longitude
Unknown
Altitude
Unknown
Speed
Unknown
Apparent Right ascension
Unknown
Apparent Declination
Unknown
Sunlit
N/A
Visualization observer readout
Local Sidereal Time
13:30:42
Azimuth
Unknown
Elevation
Unknown
Doppler factor
Unknown
Orbital elements
Apogee altitude
35,814.013 km
Perigee altitude
9,000.323 km
Semi-major axis
28,785.305 km
Eccentricity
0.46575
Inclination
13.4456°
RAAN
39.9377°
Arg. of periapsis
301.9027°
True anomaly
57.89051°
Mean anomaly
20.895°
Eccentric anomaly
36.92808°
Mean motion
0.44441 °/min
Orbital period
810.06 mins
BSTAR
0
Loading maneuver chart data...
Computing Atmospheric mass density...

Documentation

Showing up to 5 results
|